View from above orbital plane
|
View from above satellite
|
Ground track
|
The orbit data is extracted from the following two-line orbital elements,
1 17590U 87027B 21112.85986663 -.00000073 00000-0 -12550-4 0 9993
2 17590 71.0028 69.8111 0006754 304.2265 55.8219 14.16795166762980
Epoch (UTC): | 22 April 2021 20:38:12 |
Eccentricity: | 0.0006754 |
inclination: | 71.0028° |
perigee height: | 831 km |
apogee height: | 841 km |
right ascension of ascending node: | 69.8111° |
argument of perigee: | 304.2265° |
revolutions per day: | 14.16795166 |
mean anomaly at epoch: | 55.8219° |
orbit number at epoch: | 76298 |
The dashed part of the orbit path shows where the satellite is in the earth's shadow,
|
|